Weather History for Kansas City International, MO

Change the Weather History Date:

Saturday, December 29, 2012

  Actual Average Record
Temperature  
Mean Temperature 26 °F 29 °F  
Max Temperature 33 °F 38 °F 68 °F (1947)
Min Temperature 18 °F 20 °F -9 °F (1917)
Degree Days  
Heating Degree Days 39 36  
Month to date heating degree days 821 968  
Since 1 July heating degree days 1768 1970  
Cooling Degree Days 0 0  
Month to date cooling degree days 0 0  
Year to date cooling degree days 1839 1360  
Moisture  
Dew Point 14 °F    
Average Humidity 64    
Maximum Humidity 80    
Minimum Humidity 47    
Precipitation  
Precipitation T in 0.03 in 0.65 in (1971)
Month to date precipitation 1.23 1.46  
Year to date precipitation 22.17 38.79  
Snow  
Snow T in 0.10 in 1.50 in (1969)
Month to date snowfall 2.5 4.5  
Since 1 July snowfall 2.5 5.9  
Snow Depth 0.00 in    
Sea Level Pressure  
Sea Level Pressure 30.25 in    
Wind  
Wind Speed 9 mph (West)    
Max Wind Speed 16 mph    
Max Gust Speed 22 mph    
Visibility 8 miles    
Events Snow    
T = Trace of Precipitation, MM = Missing Value Source: NWS Daily Summary

Daily Weather History Graph

Daily Weather History Graph

Search for Another Location

Airport:

Trip Planner

Search our weather history database for the weather conditions in past years. The results will help you decide how hot, cold, wet, or windy it might be!

Date:

Astronomy

Dec. 29, 2012 Rise Set
Actual Time 7:38 AM CST 5:04 PM CST
Civil Twilight 7:08 AM CST 5:34 PM CST
Nautical Twilight 6:34 AM CST 6:08 PM CST
Astronomical Twilight 6:01 AM CST 6:40 PM CST
Moon 6:37 PM CST 8:12 AM CST
Length of Visible Light 10h 26m
Length of Day
9h 26m
Full, 98% of the Moon is Illuminated
Dec 29
Full
Jan 4
Last Quarter
Jan 11
New
Jan 18
First Quarter
Jan 26
Full

Hourly Weather History & Observations

Time (CST) Temp. Windchill Dew Point Humidity Pressure Visibility Wind Dir Wind Speed Gust Speed Precip Events Conditions
12:53 AM 21.0 °F 9.3 °F 15.1 °F 78% 30.11 in 5.0 mi NW 11.5 mph - 0.00 in Snow Light Snow
1:19 AM 21.2 °F 8.3 °F 15.8 °F 80% 30.07 in 5.0 mi NW 13.8 mph - 0.00 in Snow Light Snow
1:53 AM 19.9 °F 6.7 °F 14.0 °F 78% 30.13 in 5.0 mi NW 13.8 mph - 0.00 in Snow Light Snow
2:53 AM 19.9 °F 8.6 °F 14.0 °F 78% 30.16 in 5.0 mi NW 10.4 mph - 0.00 in   Haze
3:53 AM 19.9 °F 11.1 °F 14.0 °F 78% 30.17 in 6.0 mi WNW 6.9 mph - N/A   Haze
4:53 AM 19.9 °F 7.9 °F 14.0 °F 78% 30.18 in 7.0 mi WNW 11.5 mph - N/A   Overcast
5:53 AM 19.9 °F 7.9 °F 12.9 °F 74% 30.21 in 8.0 mi WNW 11.5 mph - N/A   Overcast
6:53 AM 19.0 °F 10.0 °F 12.9 °F 77% 30.23 in 10.0 mi WNW 6.9 mph - N/A   Overcast
7:53 AM 18.0 °F 5.4 °F 12.0 °F 78% 30.27 in 7.0 mi WNW 11.5 mph - N/A   Overcast
8:53 AM 19.0 °F 9.0 °F 12.9 °F 77% 30.28 in 6.0 mi WNW 8.1 mph - N/A   Haze
9:53 AM 19.9 °F 11.1 °F 12.9 °F 74% 30.29 in 7.0 mi West 6.9 mph - N/A   Mostly Cloudy
10:53 AM 21.9 °F 11.7 °F 12.9 °F 68% 30.31 in 10.0 mi West 9.2 mph - N/A   Scattered Clouds
11:53 AM 25.0 °F 16.3 °F 14.0 °F 63% 30.30 in 10.0 mi West 8.1 mph - N/A   Partly Cloudy
12:53 PM 28.0 °F 19.3 °F 14.0 °F 56% 30.27 in 10.0 mi WSW 9.2 mph - N/A   Clear
1:53 PM 30.0 °F 21.1 °F 14.0 °F 51% 30.27 in 10.0 mi West 10.4 mph - N/A   Clear
2:53 PM 32.0 °F 24.8 °F 15.1 °F 50% 30.27 in 10.0 mi West 8.1 mph - N/A   Clear
3:53 PM 33.1 °F 24.9 °F 16.0 °F 50% 30.29 in 10.0 mi WSW 10.4 mph - N/A   Clear
4:53 PM 30.0 °F 23.2 °F 17.1 °F 59% 30.28 in 10.0 mi SW 6.9 mph - N/A   Clear
5:53 PM 27.0 °F 18.7 °F 16.0 °F 63% 30.29 in 10.0 mi SW 8.1 mph - N/A   Clear
6:53 PM 27.0 °F 20.5 °F 15.1 °F 61% 30.31 in 10.0 mi SW 5.8 mph - N/A   Clear
7:53 PM 24.1 °F 17.0 °F 14.0 °F 65% 30.31 in 10.0 mi South 5.8 mph - N/A   Clear
8:53 PM 24.1 °F 16.0 °F 15.1 °F 69% 30.31 in 10.0 mi South 6.9 mph - N/A   Clear
9:53 PM 24.1 °F 17.0 °F 15.1 °F 69% 30.30 in 10.0 mi South 5.8 mph - N/A   Clear
10:53 PM 26.1 °F 18.4 °F 16.0 °F 66% 30.31 in 10.0 mi SSW 6.9 mph - N/A   Clear
11:53 PM 24.8 °F 16.9 °F 15.8 °F 69% 30.29 in 10.0 mi SSW 6.9 mph - N/A   Clear